RH
70 69 71 70 70 73 74 73 74 73 72 71 79 88 90 92 94 94 94 91 92 92 95 94 95 94 95 94 91 85 85 82 84 93 93 95 97 97 99 97 95 84 86
64 65 69 71 72 73 72 71 74 74 74 74 72 78 85 90 92 98 95 92 94 94 92 93 95 95 95 94 94 92 88 79 82 94 95 99 98 98 98 98 99 96 89
60 64 66 71 68 72 73 74 73 74 75 76 76 77 81 84 91 96 94 94 95 94 95 94 96 96 97 96 96 94 88 88 88 96 98 97 99 98 99 99 99 98 97
67 66 68 69 68 72 73 74 76 76 76 75 77 78 80 79 80 90 97 98 97 97 96 95 95 96 94 94 94 90 94 96 95 98 97 97 95 100 98 98 99 99 98
67 65 67 68 68 72 77 76 75 78 76 75 78 79 80 80 76 90 96 97 98 98 97 96 95 96 99 96 91 92 96 98 99 98 99 100 99 99 98 97 97 98 99
65 68 66 69 70 74 76 75 76 79 80 79 79 80 83 79 93 97 98 96 98 98 98 97 96 99 99 100 100 100 97 98 98 98 98 99 100 96 97 99 98 99 99
67 67 69 70 71 74 72 73 78 83 81 81 82 82 86 86 94 97 98 94 97 98 98 98 98 99 100 98 100 100 100 100 98 92 96 96 99 94 94 100 99 96 96
72 71 71 71 69 70 73 76 79 81 83 83 84 85 92 91 96 95 95 90 98 98 99 99 99 100 100 100 100 100 100 100 99 94 88 87 85 87 89 87 95 100 99
74 75 73 71 70 71 75 79 81 85 83 83 83 86 95 91 93 94 94 91 98 100 100 100 100 100 100 100 100 100 100 100 100 98 96 93 91 87 87 98 99 96 98
74 72 69 71 74 75 76 77 80 81 84 81 84 89 93 90 90 94 92 93 99 100 100 100 100 100 100 100 100 100 100 100 100 100 100 100 97 94 93 87 91 95 93
70 69 67 66 70 70 71 73 76 80 83 88 88 86 87 89 87 93 94 91 99 99 100 100 100 100 100 100 100 100 100 100 100 100 100 100 100 100 99 99 94 91 94
68 66 65 66 65 63 71 72 73 76 82 85 88 87 86 91 95 92 93 95 98 100 100 100 100 99 99 100 100 99 99 99 100 100 100 100 100 100 100 99 100 100 100
70 70 69 66 67 69 77 81 82 80 81 83 83 90 89 90 99 93 92 94 97 99 100 99 99 98 98 100 99 98 98 100 100 100 99 98 97 97 97 96 96 96 96
84 90 86 90 86 84 80 81 87 90 88 86 90 92 90 91 98 95 95 99 98 99 98 98 98 98 98 98 98 97 98 96 96 96 97 96 94 94 96 92 94 94 93
86 90 87 88 89 88 84 86 86 87 92 94 93 95 97 98 98 95 95 97 96 95 95 96 97 96 97 97 96 95 92 90 93 93 93 93 92 92 94 93 91 94 93
84 82 85 88 89 88 86 85 74 76 76 78 81 89 94 98 98 94 95 91 90 92 91 94 97 97 96 96 96 96 93 92 90 89 90 88 91 92 93 94 94 94 93
89 85 83 86 88 89 89 90 92 84 74 75 80 82 84 88 88 93 94 95 95 93 94 94 97 97 96 96 95 94 95 92 87 87 88 90 90 91 91 92 94 93 94
90 87 89 89 91 90 90 91 90 91 92 89 79 80 84 83 85 85 88 85 91 92 94 94 96 96 96 95 95 94 94 93 92 89 91 91 91 91 92 92 93 94 93
88 88 89 90 89 89 88 88 88 87 88 88 86 82 85 79 78 82 83 91 92 92 93 92 94 96 96 96 96 95 95 95 94 94 93 92 94 90 93 93 92 89 81
86 88 87 84 85 86 86 86 86 87 87 88 88 91 88 80 87 90 91 93 93 94 95 94 95 96 96 96 96 95 95 95 95 94 95 94 95 89 88 86 84 84 80
81 80 89 79 82 83 86 87 87 87 88 88 90 91 88 89 91 92 92 94 94 94 95 94 96 96 95 95 95 95 94 95 95 94 94 94 93 92 89 88 87 83 81
79 80 81 85 83 86 86 84 85 85 85 86 87 86 87 90 92 92 93 93 94 94 93 93 94 94 94 95 95 95 95 95 95 94 94 94 92 90 89 89 88 88 86
80 84 81 80 83 84 85 83 86 86 87 87 87 88 90 92 94 92 93 94 93 94 94 93 94 94 94 95 95 94 94 94 94 91 92 92 90 90 91 91 88 86 82
82 85 81 84 88 85 89 90 88 86 87 89 92 92 92 93 94 94 95 94 94 95 95 95 94 94 93 95 94 92 90 92 90 91 89 90 91 90 91 88 86 88 87
86 87 88 88 89 90 90 88 89 90 91 92 93 93 92 93 93 94 94 93 94 94 94 94 94 93 94 94 94 93 93 93 92 90 90 90 90 89 88 87 86 83 83
84 85 87 88 89 90 90 91 91 91 92 93 93 93 93 93 93 94 94 94 94 94 93 94 94 93 93 93 93 94 93 92 92 91 89 87 89 89 87 88 84 82 81
Wind_Speed
15 13 15 14 13 12 11 11 9 8 8 8 9 9 9 8 9 11 12 12 15 14 12 13 15 14 10 10 9 9 9 9 9 3 2 5 5 9 7 9 7 12 10
16 15 15 14 11 14 12 10 9 9 10 10 11 10 9 9 9 9 11 11 13 14 15 14 14 11 14 12 9 12 10 12 9 8 6 3 3 8 8 10 7 5 9
18 15 14 15 14 12 11 10 12 12 11 10 10 11 11 10 10 9 11 11 13 15 15 15 15 15 14 10 10 11 11 9 10 4 5 2 2 2 3 3 6 8 5
18 19 17 17 16 14 13 13 12 12 12 12 11 10 11 11 11 11 9 11 13 13 14 15 15 15 16 14 12 13 10 10 9 6 5 4 3 2 3 5 6 4 8
15 14 16 14 13 12 13 12 12 11 11 12 12 11 11 10 8 11 13 10 10 12 13 13 14 15 17 15 11 12 12 11 5 8 4 3 4 6 12 7 5 7 5
13 14 13 12 12 13 13 13 12 12 12 13 12 12 10 8 11 14 13 12 11 11 12 13 12 14 16 16 16 14 14 12 9 8 7 8 12 9 9 9 9 9 6
15 15 15 15 15 15 14 13 13 13 12 13 13 12 11 11 10 12 16 12 11 10 12 11 11 7 12 13 13 13 13 14 14 13 13 11 11 14 13 13 13 13 5
13 13 14 15 15 14 14 14 14 13 13 13 13 14 13 9 11 14 15 13 9 11 12 11 11 10 12 11 9 8 9 8 10 11 15 15 16 17 21 20 15 6 8
15 16 16 15 15 14 14 15 13 13 14 13 14 14 13 12 11 14 14 12 10 10 8 9 9 11 15 16 10 10 7 7 2 14 10 11 12 21 18 12 11 13 5
15 15 14 13 13 13 14 14 12 12 13 12 14 12 14 13 12 13 12 8 10 8 5 5 9 10 15 17 13 11 9 8 7 6 3 6 13 18 25 19 16 16 9
15 14 14 14 14 13 14 12 13 13 11 11 13 13 13 11 11 14 14 9 7 7 5 5 5 7 10 16 14 10 10 9 6 7 5 6 7 12 11 7 12 11 11
15 14 14 14 11 11 13 13 13 12 12 12 12 12 10 11 8 10 14 12 12 8 7 3 0 4 7 10 8 13 15 10 7 7 7 6 8 8 6 4 7 6 5
15 15 13 13 12 12 12 12 10 10 9 10 11 10 11 10 8 10 12 13 11 6 3 2 8 9 10 6 12 17 12 7 8 8 7 5 5 6 10 10 12 16 14
13 12 12 11 13 11 9 9 9 9 10 9 10 11 11 10 8 5 6 5 6 4 5 4 6 6 7 8 3 6 5 6 8 9 8 9 7 6 7 7 9 9 12
13 11 13 11 12 12 11 9 9 9 10 10 10 12 11 9 7 10 7 4 1 2 3 2 3 3 4 5 3 5 7 7 8 9 10 10 8 8 7 6 8 6 9
13 10 10 9 9 8 9 10 13 14 14 15 19 17 12 18 15 10 4 3 5 2 2 1 2 4 2 4 5 5 5 8 8 9 10 10 10 9 9 7 7 10 13
9 9 7 7 8 9 9 9 11 12 15 14 18 19 22 21 22 21 9 5 7 5 1 1 3 4 4 3 5 5 6 6 9 9 11 10 10 10 11 10 9 11 11
8 8 7 8 8 8 8 8 8 9 11 11 14 16 19 19 18 16 13 7 4 5 2 3 4 4 5 5 5 5 8 7 8 9 11 10 11 12 11 11 10 11 11
8 8 8 8 7 8 9 9 9 9 10 10 10 12 14 17 15 15 14 6 4 4 3 4 5 5 6 6 6 6 9 7 9 10 9 9 11 11 12 11 11 14 13
9 11 9 8 8 9 8 8 9 9 9 9 9 11 11 10 10 10 9 8 7 6 4 5 5 6 7 8 8 9 10 9 10 10 10 10 10 10 11 12 11 11 10
8 8 9 7 8 8 8 8 8 8 8 8 8 11 15 9 9 10 9 9 8 7 7 6 6 6 6 7 8 9 11 11 10 11 10 11 11 11 10 10 11 11 11
7 7 7 7 7 8 8 7 7 7 8 8 8 9 14 9 9 9 10 10 9 9 8 8 8 8 8 8 8 10 11 12 11 11 11 11 11 10 10 10 10 10 11
7 8 7 7 7 8 7 7 7 8 8 9 9 9 9 9 9 10 10 10 10 10 9 9 10 10 9 10 9 9 10 10 11 11 12 11 10 10 9 10 10 10 10
8 8 8 7 7 7 7 8 7 9 9 9 9 9 10 9 9 10 10 9 10 10 10 11 11 12 11 12 11 11 12 11 10 12 15 12 11 11 10 10 10 12 10
8 7 7 7 7 7 7 7 8 8 8 8 8 8 9 9 10 10 10 9 10 10 13 12 11 16 19 19 17 18 18 18 15 14 11 13 14 14 11 10 11 10 11
8 8 7 6 7 7 6 6 7 7 7 7 8 8 8 8 9 9 9 10 10 11 13 11 14 19 18 15 17 18 18 18 15 16 11 10 11 10 10 11 14 9 10
Wind_Direction
28 27 37 30 35 42 37 29 7 347 343 350 327 322 292 257 232 227 217 215 214 212 205 208 207 205 198 201 193 202 203 209 222 124 149 182 182 184 176 190 183 197 192
9 17 30 29 19 31 28 12 358 349 351 344 335 311 308 290 248 235 224 214 217 213 210 208 210 200 204 194 189 201 207 210 215 196 175 169 187 203 185 164 148 168 179
354 10 21 21 22 12 10 0 0 356 351 341 331 328 315 307 306 246 228 225 216 214 211 209 206 197 199 189 192 196 205 207 212 139 161 143 104 156 116 82 127 114 101
352 7 12 8 5 357 352 0 352 349 350 342 328 320 311 307 301 302 255 234 225 217 212 208 204 197 197 193 198 204 202 198 199 180 154 147 133 121 127 151 140 130 125
346 355 4 1 0 349 350 347 353 353 345 334 322 315 316 313 307 332 328 253 242 222 214 213 205 198 201 199 198 202 195 200 182 168 145 138 155 159 183 171 145 134 111
353 354 351 357 356 360 347 347 345 347 339 329 316 311 312 310 323 325 327 314 255 223 225 206 207 201 202 197 191 183 188 189 176 171 176 193 192 187 169 168 152 156 160
352 346 355 2 355 351 340 342 343 341 333 322 314 313 311 312 316 320 322 313 287 245 223 216 210 196 194 196 201 198 198 196 172 178 186 192 182 183 167 169 182 191 159
350 347 359 360 348 341 341 342 340 333 326 319 315 312 309 311 312 318 316 303 279 265 237 220 209 197 197 189 179 197 211 200 199 190 202 198 201 180 184 184 171 125 93
354 353 354 350 342 340 341 335 332 324 323 320 315 308 303 311 315 315 321 313 290 264 236 216 197 192 195 192 182 193 207 223 219 207 217 186 171 177 169 139 158 156 136
351 349 344 348 345 338 337 331 327 321 315 315 311 306 302 306 318 314 320 305 293 281 252 257 225 210 200 190 200 187 198 216 163 133 128 126 147 169 176 181 167 177 152
345 343 345 350 343 338 333 329 329 325 321 318 316 315 309 307 318 318 316 307 289 292 262 249 244 211 205 195 192 181 199 133 130 120 118 121 140 163 179 193 180 183 178
343 345 350 348 346 338 331 331 332 330 327 328 326 320 320 317 304 315 321 308 299 272 258 241 351 262 216 176 151 130 123 112 124 122 128 135 145 163 159 120 121 75 76
344 344 344 346 345 346 340 337 329 334 336 334 328 322 317 314 305 306 311 319 310 288 279 195 131 121 112 66 130 130 124 126 130 131 127 103 97 110 110 95 89 89 74
339 333 338 342 347 347 342 340 336 340 338 338 336 322 313 308 304 302 304 318 347 8 53 67 77 85 81 91 105 90 105 126 136 129 119 113 115 121 115 123 112 110 97
343 338 342 347 348 343 347 340 342 345 346 348 346 338 324 315 312 310 295 312 7 79 91 44 68 61 100 108 113 89 104 114 115 124 129 121 122 117 104 114 118 105 107
338 343 339 338 339 343 342 341 347 356 352 358 357 358 351 350 326 318 330 81 137 113 356 319 91 91 95 122 113 109 107 120 126 130 123 126 128 120 113 103 106 114 117
324 328 329 331 348 350 347 344 342 342 347 354 359 356 0 6 16 24 25 67 23 359 42 76 61 85 88 68 93 116 110 116 128 126 118 125 120 114 117 113 111 114 110
328 330 343 349 353 349 351 349 347 347 344 344 352 355 358 357 4 13 12 22 22 22 30 93 89 77 81 86 88 118 111 115 112 113 113 122 117 115 115 112 113 114 111
349 355 352 354 356 352 355 358 355 354 349 345 345 354 358 357 8 19 22 30 28 39 48 79 89 95 93 95 95 96 95 102 107 109 107 110 107 111 110 108 107 112 115
356 357 357 359 358 359 359 1 358 356 352 353 357 356 349 2 17 20 24 28 29 43 39 68 76 91 95 101 102 97 93 92 95 95 99 97 97 102 104 110 113 112 106
354 357 356 2 4 3 2 2 1 355 360 353 1 7 9 21 23 23 22 27 26 40 44 57 62 73 89 98 101 103 103 99 96 98 95 94 95 96 95 98 103 106 111
359 358 5 7 4 7 6 6 7 7 8 8 13 16 20 31 29 28 27 25 29 42 49 58 58 61 70 77 87 95 99 101 99 98 98 96 98 97 101 99 97 100 107
5 5 9 12 9 8 16 18 17 18 20 23 25 22 26 31 31 33 32 31 32 34 33 51 62 65 63 65 65 77 86 87 93 99 100 100 98 98 99 99 104 106 106
9 12 13 16 19 18 21 25 25 28 28 29 32 30 31 31 34 35 35 38 41 37 39 47 52 58 67 68 67 66 72 73 78 89 94 95 93 95 94 94 98 100 97
16 17 20 19 20 21 23 28 32 33 33 32 35 36 36 36 38 36 37 40 45 46 46 42 46 51 54 64 70 73 73 75 77 84 85 91 96 95 96 95 101 98 100
21 22 26 22 24 25 26 28 35 36 39 37 38 40 43 44 43 42 43 43 48 47 51 43 49 53 56 57 63 66 69 73 76 82 89 94 97 99 101 102 104 102 100